Location: Kolin
(50.0330°N, 15.2000°E)
Time: 10:53:39
(UTC+02:00)

ISS - Pass Details

Date: 25 May 2021
Orbit: 417 x 422 km, 51.6° (Epoch: 13 June)

Event Time Altitude Azimuth Distance (km) Brightness Sun altitude
Rises 22:12:13 0° 285° (WNW) 2,367 1.0 -10.2°
Reaches altitude 10° 22:14:19 10° 286° (WNW) 1,502 -0.1 -10.4°
Maximum altitude 22:17:42 90° 358° (N) 425 -3.8 -10.7°
Enters shadow 22:20:44 12° 107° (ESE) 1,364 -1.6 -11.0°
